Main page
METAR-TAF:

METAR-TAF

Airports :

Kashmar, Iran

latitude: 35-16-14N, longitude: 58-28-24E, elevation: 1110 m

Current weather observation

The report was made 14 minutes ago, at 03:00 UTC
Wind 4 kt from the Southeast
Temperature 26°C
Humidity 28%
Pressure 1012 hPa

METAR: OIMQ 240300Z AUTO 13004KT //// // ////// 26/06 Q1012

Time: 07:44 (03:14 UTC)


TAF: missing

Weather observations and forecasts of more than 4000 airports (METAR and TAF reports).

The available stations are represented by yellow and red dots on the map.

Hover mouse over dot to see the name of the station.

Then click to see weather observations and forecasts.

To change the map : click on the green buttons with a black cross to zoom in, on the green button with a dash to zoom out, or on the green arrows for adjacent maps.


METAR-TAF: